Weather History for KMTO - April, 2013

Change the Weather History Date:

Monday, April 22, 2013

  Actual Average Record
Temperature  
Mean Temperature 54 °F 56 °F  
Max Temperature 67 °F 66 °F 88 °F (1980)
Min Temperature 40 °F 46 °F 28 °F (1986)
Degree Days  
Heating Degree Days 11 10  
Month to date heating degree days 307 295  
Since 1 July heating degree days 5166 5198  
Cooling Degree Days 0 1  
Month to date cooling degree days 2 3  
Year to date cooling degree days 2 4  
Growing Degree Days 4 (Base 50)    
Moisture  
Dew Point 39 °F    
Average Humidity 55    
Maximum Humidity 70    
Minimum Humidity 40    
Precipitation  
Precipitation 0.00 in 0.11 in 2.64 in (1984)
Month to date precipitation 5.80 2.24  
Year to date precipitation 13.19 8.79  
Sea Level Pressure  
Sea Level Pressure 30.18 in    
Wind  
Wind Speed 8 mph (SSE)    
Max Wind Speed 16 mph    
Max Gust Speed 22 mph    
Visibility 10 miles    
Events      
T = Trace of Precipitation, MM = Missing Value Source: NWS Daily Summary

Daily Weather History Graph

Daily Weather History Graph

Search for Another Location

Airport or City:

Trip Planner

Search our weather history database for the weather conditions in past years. The results will help you decide how hot, cold, wet, or windy it might be!

Date:

Astronomy

Apr. 22, 2013 Rise Set
Actual Time 6:05 AM CDT 7:38 PM CDT
Civil Twilight 5:37 AM CDT 8:06 PM CDT
Nautical Twilight 5:03 AM CDT 8:40 PM CDT
Astronomical Twilight 4:27 AM CDT 9:17 PM CDT
Moon 4:27 PM CDT (4/22) 3:59 AM CDT (4/22)
Length of Visible Light 14h 29m
Length of Day
13h 32m
Waxing Gibbous, 88% of the Moon is Illuminated
Apr 22
Waxing Gibbous
Apr 25
Full
May 2
Last Quarter
May 9
New
May 17
First Quarter

Hourly Weather History & Observations

Time (CDT) Temp. Windchill Dew Point Humidity Pressure Visibility Wind Dir Wind Speed Gust Speed Precip Events Conditions
12:53 AM 46.0 °F 41.0 °F 35.1 °F 66% 30.30 in 10.0 mi ESE 10.4 mph - N/A   Clear
1:53 AM 45.0 °F 40.6 °F 34.0 °F 65% 30.30 in 10.0 mi SE 8.1 mph - N/A   Partly Cloudy
2:53 AM 44.1 °F 40.8 °F 34.0 °F 68% 30.28 in 10.0 mi SE 5.8 mph - N/A   Clear
3:53 AM 43.0 °F 40.3 °F 34.0 °F 71% 30.27 in 10.0 mi SE 4.6 mph - N/A   Clear
4:53 AM 42.1 °F 39.2 °F 33.1 °F 70% 30.27 in 10.0 mi SE 4.6 mph - N/A   Clear
5:53 AM 41.0 °F 37.1 °F 32.0 °F 70% 30.27 in 10.0 mi SE 5.8 mph - N/A   Clear
6:53 AM 42.1 °F 37.7 °F 33.1 °F 70% 30.27 in 10.0 mi SE 6.9 mph - N/A   Clear
7:53 AM 48.0 °F - 34.0 °F 58% 30.27 in 10.0 mi SE 8.1 mph - N/A   Clear
8:53 AM 52.0 °F - 36.0 °F 54% 30.26 in 10.0 mi SSE 11.5 mph - N/A   Clear
9:53 AM 55.9 °F - 37.9 °F 51% 30.26 in 10.0 mi South 9.2 mph - N/A   Clear
10:53 AM 59.0 °F - 39.9 °F 49% 30.25 in 10.0 mi South 6.9 mph - N/A   Clear
11:53 AM 63.0 °F - 39.9 °F 43% 30.23 in 10.0 mi South 9.2 mph - N/A   Clear
12:53 PM 64.0 °F - 39.0 °F 40% 30.20 in 10.0 mi South 5.8 mph - N/A   Clear
1:53 PM 64.9 °F - 41.0 °F 42% 30.18 in 10.0 mi SE 6.9 mph - N/A   Clear
2:53 PM 66.0 °F - 42.1 °F 42% 30.14 in 10.0 mi SSE 8.1 mph - N/A   Clear
3:53 PM 66.9 °F - 42.1 °F 40% 30.12 in 10.0 mi South 11.5 mph 17.3 mph N/A   Clear
4:53 PM 66.9 °F - 44.1 °F 44% 30.09 in 10.0 mi SSE 9.2 mph - N/A   Clear
5:53 PM 66.0 °F - 44.1 °F 45% 30.06 in 10.0 mi SSE 11.5 mph - N/A   Clear
6:53 PM 64.0 °F - 45.0 °F 50% 30.06 in 10.0 mi SSE 8.1 mph - N/A   Clear
7:53 PM 60.1 °F - 45.0 °F 57% 30.06 in 10.0 mi SE 5.8 mph - N/A   Clear
8:53 PM 57.9 °F - 45.0 °F 62% 30.06 in 10.0 mi SE 5.8 mph - N/A   Clear
9:53 PM 57.9 °F - 45.0 °F 62% 30.06 in 10.0 mi SE 6.9 mph - N/A   Clear
10:53 PM 57.0 °F - 45.0 °F 64% 30.07 in 10.0 mi SSE 5.8 mph - N/A   Partly Cloudy
11:53 PM 57.9 °F - 46.0 °F 65% 30.06 in 10.0 mi SSE 6.9 mph - N/A   Mostly Cloudy